Auburn-Lewiston, ME

3:14 PM EDT on March 29, 2017 (GMT -0400)
Auburn-Lewiston Municipal

Weather History for KLEW - January, 2014

Change the Weather History Date:

Thursday, January 2, 2014

  Actual Average Record
Temperature  
Mean Temperature 0 °F -  
Max Temperature 6 °F 29 °F 44 °F (2012)
Min Temperature -7 °F 13 °F -18 °F (1999)
Degree Days  
Heating Degree Days 66    
Moisture  
Dew Point -18 °F    
Average Humidity 50    
Maximum Humidity 77    
Minimum Humidity 25    
Precipitation  
Precipitation 0.00 in - - ()
Sea Level Pressure  
Sea Level Pressure 30.26 in    
Wind  
Wind Speed 10 mph (NNE)    
Max Wind Speed 20 mph    
Max Gust Speed 25 mph    
Visibility 4 miles    
Events      
Averages and records for this station are not official NWS values.
T = Trace of Precipitation, MM = Missing Value Source: NWS Daily Summary

Daily Weather History Graph

Daily Weather History Graph

Search for Another Location

Airport or City:

Trip Planner

Search our weather history database for the weather conditions in past years. The results will help you decide how hot, cold, wet, or windy it might be!

Date:

Astronomy

Jan. 02, 2014 Rise Set
Actual Time 7:16 AM EST 4:14 PM EST
Civil Twilight 6:43 AM EST 4:47 PM EST
Nautical Twilight 6:06 AM EST 5:23 PM EST
Astronomical Twilight 5:31 AM EST 5:58 PM EST
Moon 7:50 AM EST (1/2) 6:12 PM EST (1/2)
Length of Visible Light 10h 04m
Length of Day
8h 58m
New Moon, 2% of the Moon is Illuminated
Jan 2
New Moon
Jan 7
First Quarter
Jan 15
Full
Jan 24
Last Quarter
Jan 30
New

Hourly Weather History & Observations

Time (EST) Temp. Windchill Dew Point Humidity Pressure Visibility Wind Dir Wind Speed Gust Speed Precip Events Conditions
12:15 AM 6.8 °F -3.5 °F - N/A% 30.36 in 10.0 mi NE 5.8 mph - N/A   Overcast
12:35 AM 5.0 °F -9.1 °F -11.2 °F 47% 30.36 in 10.0 mi NNE 9.2 mph - N/A   Overcast
12:55 AM 5.0 °F -10.8 °F -11.2 °F 47% 30.36 in 10.0 mi NNE 11.5 mph - N/A   Overcast
1:15 AM 3.2 °F -12.2 °F -11.2 °F 51% 30.37 in 10.0 mi NNE 10.4 mph - N/A   Overcast
1:35 AM 3.2 °F -12.2 °F -11.2 °F 51% 30.37 in 10.0 mi NNE 10.4 mph - N/A   Overcast
1:55 AM 3.2 °F -12.2 °F -13.0 °F 47% 30.37 in 10.0 mi NNE 10.4 mph - N/A   Overcast
2:15 AM 3.2 °F -10.3 °F -11.2 °F 51% 30.37 in 10.0 mi NNE 8.1 mph - N/A   Overcast
2:35 AM 3.2 °F -13.1 °F -9.4 °F 56% 30.37 in 10.0 mi NNE 11.5 mph - N/A   Overcast
2:55 AM 3.2 °F -10.3 °F -13.0 °F 47% 30.37 in 10.0 mi NNE 8.1 mph - N/A   Overcast
3:15 AM 3.2 °F -10.3 °F -13.0 °F 47% 30.37 in 10.0 mi NE 8.1 mph - N/A   Overcast
3:35 AM 1.4 °F -14.5 °F -11.2 °F 56% 30.37 in 10.0 mi NNE 10.4 mph - N/A   Overcast
3:55 AM 1.4 °F -13.5 °F -11.2 °F 56% 30.36 in 10.0 mi NNE 9.2 mph - N/A   Overcast
4:15 AM 1.4 °F -11.3 °F -11.2 °F 56% 30.35 in 10.0 mi NNE 6.9 mph - N/A   Overcast
4:35 AM 1.4 °F -11.3 °F -13.0 °F 51% 30.36 in 10.0 mi NNE 6.9 mph - N/A   Overcast
4:55 AM 1.4 °F -11.3 °F -9.4 °F 61% 30.36 in 10.0 mi NE 6.9 mph - N/A   Overcast
5:15 AM 1.4 °F -11.3 °F -9.4 °F 61% 30.37 in 10.0 mi NNE 6.9 mph - N/A   Overcast
5:35 AM -0.4 °F -14.7 °F -14.8 °F 51% 30.37 in 5.0 mi NE 8.1 mph - N/A   Overcast
5:55 AM -0.4 °F -12.0 °F - N/A% 30.38 in 5.0 mi NE 5.8 mph - N/A   Overcast
6:15 AM -0.4 °F -14.7 °F - N/A% 30.38 in 5.0 mi NE 8.1 mph - N/A   Overcast
6:35 AM -0.4 °F -15.7 °F -29.2 °F 25% 30.39 in 4.0 mi NE 9.2 mph - N/A   Overcast
6:55 AM -0.4 °F -17.6 °F -25.6 °F 30% 30.39 in 3.0 mi NE 11.5 mph - N/A   Overcast
7:15 AM -2.2 °F -16.8 °F -23.8 °F 35% 30.39 in 1.8 mi NNE 8.1 mph - N/A   Overcast
7:35 AM -2.2 °F -18.9 °F -23.8 °F 35% 30.38 in 2.0 mi NNE 10.4 mph - N/A   Overcast
7:55 AM -2.2 °F -18.0 °F -23.8 °F 35% 30.38 in 3.0 mi NNE 9.2 mph - N/A   Overcast
8:15 AM -2.2 °F -18.9 °F -23.8 °F 35% 30.38 in 2.5 mi NNE 10.4 mph - N/A   Overcast
8:35 AM -2.2 °F -19.9 °F -22.0 °F 39% 30.38 in 1.5 mi NNE 11.5 mph - N/A   Overcast
8:55 AM -2.2 °F -19.9 °F -20.2 °F 42% 30.39 in 1.2 mi NNE 11.5 mph - N/A   Overcast
9:15 AM -2.2 °F -18.0 °F -20.2 °F 42% 30.39 in 1.2 mi NE 9.2 mph - N/A   Overcast
9:35 AM -2.2 °F -20.7 °F -18.4 °F 46% 30.38 in 1.2 mi NNE 12.7 mph 17.3 mph N/A   Overcast
9:55 AM -4.0 °F -19.0 °F -18.4 °F 50% 30.38 in 1.0 mi NNE 8.1 mph - N/A   Overcast
10:15 AM -2.2 °F -18.9 °F -18.4 °F 46% 30.37 in 1.5 mi NNE 10.4 mph - N/A   Overcast
10:35 AM -2.2 °F -20.7 °F -16.6 °F 50% 30.36 in 3.0 mi North 12.7 mph - N/A   Overcast
10:55 AM -2.2 °F -18.9 °F -16.6 °F 50% 30.35 in 4.0 mi NNE 10.4 mph - N/A   Overcast
11:15 AM -2.2 °F -19.9 °F -16.6 °F 50% 30.33 in 5.0 mi NNE 11.5 mph - N/A   Overcast
11:35 AM -2.2 °F -18.9 °F -14.8 °F 55% 30.33 in 4.0 mi NE 10.4 mph - N/A   Overcast
11:55 AM -2.2 °F -20.7 °F -16.6 °F 50% 30.30 in 2.5 mi NNE 12.7 mph - N/A   Mostly Cloudy
12:15 PM -2.2 °F -21.5 °F -16.6 °F 50% 30.29 in 1.8 mi NNE 13.8 mph 18.4 mph N/A   Overcast
12:35 PM -4.0 °F -20.2 °F -13.0 °F 65% 30.27 in 3.0 mi NE 9.2 mph - N/A   Overcast
12:55 PM -4.0 °F -20.2 °F -18.4 °F 50% 30.26 in 3.0 mi NE 9.2 mph - N/A   Overcast
1:15 PM -4.0 °F -19.0 °F -11.2 °F 71% 30.25 in 2.5 mi NE 8.1 mph - N/A   Overcast
1:35 PM -4.0 °F -19.0 °F -13.0 °F 65% 30.25 in 2.5 mi NE 8.1 mph - N/A   Overcast
1:55 PM -4.0 °F -20.2 °F - N/A% 30.23 in 2.0 mi NE 9.2 mph - N/A   Overcast
2:15 PM -4.0 °F -19.0 °F - N/A% 30.23 in 1.2 mi NE 8.1 mph - N/A   Overcast
2:35 PM -4.0 °F -19.0 °F -31.0 °F 26% 30.24 in 1.0 mi NE 8.1 mph - N/A   Overcast
2:55 PM -4.0 °F -21.2 °F -27.4 °F 32% 30.23 in 2.5 mi NE 10.4 mph - N/A   Overcast
3:15 PM -4.0 °F -21.2 °F -25.6 °F 35% 30.22 in 1.5 mi NE 10.4 mph - N/A   Overcast
3:35 PM -4.0 °F -17.8 °F -25.6 °F 35% 30.21 in 1.2 mi NE 6.9 mph - N/A   Overcast
3:55 PM -5.8 °F -25.2 °F -25.6 °F 38% 30.20 in 1.8 mi NNE 12.7 mph 16.1 mph N/A   Overcast
4:15 PM -5.8 °F -25.2 °F -23.8 °F 42% 30.18 in 2.0 mi NNE 12.7 mph 17.3 mph N/A   Overcast
4:35 PM -5.8 °F -22.4 °F -23.8 °F 42% 30.18 in 2.5 mi NNE 9.2 mph 17.3 mph N/A   Overcast
4:55 PM -5.8 °F -25.2 °F -23.8 °F 42% 30.18 in 2.5 mi NNE 12.7 mph 17.3 mph N/A   Overcast
5:15 PM -5.8 °F -23.4 °F -23.8 °F 42% 30.17 in 2.5 mi NNE 10.4 mph - N/A   Overcast
5:35 PM -5.8 °F -23.4 °F -22.0 °F 46% 30.18 in 2.0 mi NNE 10.4 mph 19.6 mph N/A   Overcast
5:55 PM -5.8 °F -26.0 °F -22.0 °F 46% 30.18 in 1.5 mi NNE 13.8 mph - N/A   Overcast
6:15 PM -5.8 °F -26.8 °F -20.2 °F 50% 30.17 in 2.0 mi NNE 15.0 mph 20.7 mph N/A   Overcast
6:35 PM -5.8 °F -28.2 °F -20.2 °F 50% 30.17 in 2.5 mi NNE 17.3 mph 23.0 mph N/A   Overcast
6:55 PM -5.8 °F -26.0 °F -20.2 °F 50% 30.16 in 2.0 mi NNE 13.8 mph 18.4 mph N/A   Overcast
7:15 PM -5.8 °F -27.5 °F -18.4 °F 55% 30.15 in 2.0 mi NNE 16.1 mph 20.7 mph N/A   Overcast
7:35 PM -5.8 °F -28.8 °F -20.2 °F 50% 30.14 in 2.0 mi NNE 18.4 mph 24.2 mph N/A   Overcast
7:55 PM -5.8 °F -26.0 °F -18.4 °F 55% 30.13 in 2.5 mi NNE 13.8 mph 21.9 mph N/A   Overcast
8:15 PM -5.8 °F -28.2 °F -18.4 °F 55% 30.11 in 2.0 mi NNE 17.3 mph 25.3 mph N/A   Overcast
8:35 PM -5.8 °F -29.4 °F -18.4 °F 55% 30.12 in 3.0 mi NNE 19.6 mph 23.0 mph N/A   Overcast
8:55 PM -7.6 °F -31.1 °F -18.4 °F 59% 30.10 in 2.5 mi North 18.4 mph - N/A   Overcast
9:15 PM -7.6 °F -30.5 °F -16.6 °F 65% 30.07 in 2.0 mi NNE 17.3 mph 23.0 mph N/A   Overcast
9:35 PM -7.6 °F -31.7 °F -18.4 °F 59% 30.07 in 3.0 mi North 19.6 mph 25.3 mph N/A   Overcast
9:55 PM -7.6 °F -30.5 °F -16.6 °F 65% 30.06 in 2.5 mi North 17.3 mph 25.3 mph N/A   Overcast
10:15 PM -7.6 °F -30.5 °F -13.0 °F 77% 30.04 in 1.8 mi North 17.3 mph - N/A   Overcast
10:35 PM -7.6 °F -29.8 °F -18.4 °F 59% 30.03 in 2.0 mi North 16.1 mph - N/A   Overcast
10:55 PM -7.6 °F -31.1 °F -18.4 °F 59% 30.01 in 2.0 mi North 18.4 mph 24.2 mph N/A   Overcast
11:15 PM -5.8 °F -29.4 °F -11.2 °F 77% 29.99 in 1.8 mi North 19.6 mph 25.3 mph N/A   Overcast
11:35 PM -5.8 °F -28.2 °F -13.0 °F 71% 29.98 in 1.8 mi North 17.3 mph 24.2 mph N/A   Overcast
11:55 PM -5.8 °F -28.8 °F -20.2 °F 50% 29.96 in 1.8 mi North 18.4 mph 24.2 mph N/A   Overcast